| time (UTC) | temp C | wind direction | speed KPH | gust KPH | rain 1hr cm | rain 24hr cm | rain mn cm | humidity % | barometer mb |
| 20260505100518 | 10 | 0.0 | 0.0 | 0.00 | 0.00 | 0.00 | 88 | 1012.6 | |
| 20260505095538 | 10 | 0.0 | 0.0 | 0.00 | 0.00 | 0.00 | 87 | 1012.6 | |
| 20260505094558 | 10 | 0.0 | 0.0 | 0.00 | 0.00 | 0.00 | 88 | 1012.5 | |
| 20260505093538 | 10 | 0.0 | 0.0 | 0.00 | 0.00 | 0.00 | 88 | 1012.4 | |
| 20260505092518 | 10 | 0.0 | 0.0 | 0.00 | 0.00 | 0.00 | 87 | 1012.4 | |
| 20260505091518 | 10 | 0.0 | 0.0 | 0.00 | 0.00 | 0.00 | 87 | 1012.4 | |
| 20260505090518 | 10 | 0.0 | 0.0 | 0.00 | 0.00 | 0.00 | 87 | 1012.2 | |
| 20260505085518 | 10 | 0.0 | 0.0 | 0.00 | 0.00 | 0.00 | 87 | 1012.1 | |
| 20260505084518 | 10 | 0.0 | 0.0 | 0.00 | 0.00 | 0.00 | 86 | 1012.0 | |
| 20260505083518 | 11 | 0.0 | 0.0 | 0.00 | 0.00 | 0.00 | 86 | 1011.9 | |
| 20260505082518 | 11 | 0.0 | 0.0 | 0.00 | 0.00 | 0.00 | 86 | 1011.8 | |
| 20260505081518 | 11 | 0.0 | 0.0 | 0.00 | 0.00 | 0.00 | 85 | 1011.8 | |
| 20260505080538 | 11 | 0.0 | 0.0 | 0.00 | 0.00 | 0.00 | 85 | 1011.8 | |
| 20260505075518 | 11 | 0.0 | 0.0 | 0.00 | 0.00 | 0.00 | 86 | 1011.8 | |
| 20260505074518 | 11 | 0.0 | 0.0 | 0.00 | 0.00 | 0.00 | 85 | 1011.7 | |
| 20260505073559 | 11 | 0.0 | 0.0 | 0.00 | 0.00 | 0.00 | 84 | 1011.6 | |
| 20260505072518 | 11 | 0.0 | 0.0 | 0.00 | 0.00 | 0.00 | 84 | 1011.4 | |
| 20260505071518 | 11 | 0.0 | 0.0 | 0.00 | 0.00 | 0.00 | 84 | 1011.4 | |
| 20260505070518 | 12 | 0.0 | 0.0 | 0.00 | 0.00 | 0.00 | 83 | 1011.2 | |
| 20260505070018 | 12 | 0.0 | 0.0 | 0.00 | 0.00 | 0.00 | 82 | 1011.2 | |
| 20260505065020 | 12 | 0.0 | 0.0 | 0.00 | 0.00 | 0.00 | 82 | 1011.2 | |
| 20260505064019 | 12 | 0.0 | 0.0 | 0.00 | 0.00 | 0.00 | 82 | 1011.1 | |
| 20260505063020 | 12 | 0.0 | 0.0 | 0.00 | 0.00 | 0.00 | 81 | 1011.1 | |
| 20260505062020 | 12 | 0.0 | 0.0 | 0.00 | 0.00 | 0.00 | 81 | 1011.0 | |
| 20260505061020 | 13 | 0.0 | 0.0 | 0.00 | 0.00 | 0.00 | 82 | 1010.8 | |
| 20260505060019 | 13 | 0.0 | 0.0 | 0.00 | 0.00 | 0.00 | 81 | 1010.7 | |
| 20260505055019 | 13 | 0.0 | 0.0 | 0.00 | 0.00 | 0.00 | 81 | 1010.5 | |
| 20260505054040 | 13 | 0.0 | 0.0 | 0.00 | 0.00 | 0.00 | 80 | 1010.5 | |
| 20260505053059 | 13 | 0.0 | 0.0 | 0.00 | 0.00 | 0.00 | 79 | 1010.3 | |
| 20260505052020 | 13 | 0.0 | 0.0 | 0.00 | 0.00 | 0.00 | 78 | 1010.3 | |
| 20260505051020 | 14 | 0.0 | 0.0 | 0.00 | 0.00 | 0.00 | 77 | 1010.3 | |
| 20260505041100 | 16 | 0.0 | 0.0 | 0.00 | 0.00 | 0.00 | 73 | 1009.7 | |
| 20260505040100 | 17 | 0.0 | 0.0 | 0.00 | 0.00 | 0.00 | 72 | 1009.5 | |
| 20260505035019 | 17 | 0.0 | 0.0 | 0.00 | 0.00 | 0.00 | 73 | 1009.3 | |
| 20260505034020 | 17 | 0.0 | 0.0 | 0.00 | 0.00 | 0.00 | 72 | 1009.2 | |
| 20260505033019 | 18 | 0.0 | 0.0 | 0.00 | 0.00 | 0.00 | 71 | 1009.1 | |
| 20260505032019 | 18 | 0.0 | 0.0 | 0.00 | 0.00 | 0.00 | 70 | 1009.0 | |
| 20260505031100 | 19 | 0.0 | 0.0 | 0.00 | 0.00 | 0.00 | 70 | 1008.9 | |
| 20260505030039 | 19 | 0.0 | 0.0 | 0.00 | 0.00 | 0.00 | 69 | 1008.7 | |
| 20260505025020 | 20 | 0.0 | 0.0 | 0.00 | 0.00 | 0.00 | 68 | 1008.7 | |
| 20260505024039 | 20 | 0.0 | 0.0 | 0.00 | 0.00 | 0.00 | 67 | 1008.8 | |
| 20260505023020 | 20 | 0.0 | 0.0 | 0.00 | 0.00 | 0.00 | 67 | 1008.7 | |
| 20260505022019 | 20 | 0.0 | 0.0 | 0.00 | 0.00 | 0.00 | 66 | 1008.8 | |
| 20260505021019 | 21 | 0.0 | 0.0 | 0.00 | 0.00 | 0.00 | 66 | 1008.8 | |
| 20260505020040 | 21 | 0.0 | 0.0 | 0.00 | 0.00 | 0.00 | 64 | 1008.8 | |
| 20260505015019 | 21 | 0.0 | 0.0 | 0.00 | 0.00 | 0.00 | 63 | 1008.9 | |
| 20260505014020 | 21 | 0.0 | 0.0 | 0.00 | 0.00 | 0.00 | 63 | 1009.1 | |
| 20260505013040 | 21 | 0.0 | 0.0 | 0.00 | 0.00 | 0.00 | 62 | 1009.1 | |
| 20260505012019 | 21 | 0.0 | 0.0 | 0.00 | 0.00 | 0.00 | 59 | 1009.2 | |
| 20260505011020 | 21 | 0.0 | 1.6 | 0.00 | 0.00 | 0.00 | 59 | 1009.3 | |
| 20260505010020 | 21 | 0.0 | 0.0 | 0.00 | 0.00 | 0.00 | 59 | 1009.3 | |
| 20260505005019 | 21 | 0.0 | 1.6 | 0.00 | 0.00 | 0.00 | 58 | 1009.3 | |
| 20260505004019 | 21 | 0.0 | 1.6 | 0.00 | 0.00 | 0.00 | 56 | 1009.4 | |
| 20260505003019 | 21 | 0.0 | 3.2 | 0.00 | 0.00 | 0.00 | 57 | 1009.4 | |
| 20260505002019 | 21 | 0.0 | 1.6 | 0.00 | 0.00 | 0.00 | 56 | 1009.3 | |
| 20260505001019 | 22 | 45 | 1.6 | 3.2 | 0.00 | 0.00 | 0.00 | 55 | 1009.4 |
| 20260505000019 | 22 | 0.0 | 3.2 | 0.00 | 0.00 | 0.00 | 56 | 1009.4 | |
| 20260504235019 | 22 | 0.0 | 1.6 | 0.00 | 0.00 | 0.00 | 54 | 1009.4 | |
| 20260504234019 | 22 | 0.0 | 1.6 | 0.00 | 0.00 | 0.00 | 54 | 1009.4 | |
| 20260504233019 | 22 | 0.0 | 0.0 | 0.00 | 0.00 | 0.00 | 53 | 1009.4 | |
| 20260504232019 | 23 | 0.0 | 3.2 | 0.00 | 0.00 | 0.00 | 52 | 1009.4 | |
| 20260504231019 | 23 | 0.0 | 3.2 | 0.00 | 0.00 | 0.00 | 52 | 1009.4 | |
| 20260504230019 | 23 | 0.0 | 3.2 | 0.00 | 0.00 | 0.00 | 53 | 1009.5 | |
| 20260504225019 | 23 | 0.0 | 3.2 | 0.00 | 0.00 | 0.00 | 54 | 1009.5 | |
| 20260504224020 | 23 | 0.0 | 0.0 | 0.00 | 0.00 | 0.00 | 52 | 1009.6 | |
| 20260504223019 | 23 | 0.0 | 0.0 | 0.00 | 0.00 | 0.00 | 55 | 1009.6 | |
| 20260504222039 | 23 | 0.0 | 0.0 | 0.00 | 0.00 | 0.00 | 54 | 1009.7 | |
| 20260504221019 | 23 | 0.0 | 1.6 | 0.00 | 0.00 | 0.00 | 54 | 1009.8 | |
| 20260504220019 | 23 | 0.0 | 3.2 | 0.00 | 0.00 | 0.00 | 54 | 1009.8 | |
| 20260504215019 | 23 | 0.0 | 3.2 | 0.00 | 0.00 | 0.00 | 55 | 1009.9 | |
| 20260504214019 | 23 | 45 | 1.6 | 3.2 | 0.00 | 0.00 | 0.00 | 54 | 1010.0 |
| 20260504213019 | 23 | 0.0 | 1.6 | 0.00 | 0.00 | 0.00 | 54 | 1010.1 | |
| 20260504212019 | 23 | 0.0 | 3.2 | 0.00 | 0.00 | 0.00 | 54 | 1010.1 | |
| 20260504211019 | 23 | 0.0 | 1.6 | 0.00 | 0.00 | 0.00 | 56 | 1010.2 | |
| 20260504210019 | 22 | 0.0 | 1.6 | 0.00 | 0.00 | 0.00 | 57 | 1010.2 | |
| 20260504205019 | 22 | 0.0 | 3.2 | 0.00 | 0.00 | 0.00 | 59 | 1010.3 | |
| 20260504204019 | 22 | 0.0 | 0.0 | 0.00 | 0.00 | 0.00 | 59 | 1010.3 | |
| 20260504203039 | 22 | 0.0 | 0.0 | 0.00 | 0.00 | 0.00 | 59 | 1010.3 | |
| 20260504202019 | 22 | 0.0 | 0.0 | 0.00 | 0.00 | 0.00 | 58 | 1010.3 | |
| 20260504201019 | 22 | 0.0 | 3.2 | 0.00 | 0.00 | 0.00 | 58 | 1010.3 | |
| 20260504200019 | 22 | 45 | 1.6 | 3.2 | 0.00 | 0.00 | 0.00 | 56 | 1010.3 |
| 20260504195019 | 22 | 0.0 | 3.2 | 0.00 | 0.00 | 0.00 | 56 | 1010.3 | |
| 20260504194019 | 22 | 0.0 | 1.6 | 0.00 | 0.00 | 0.00 | 56 | 1010.3 | |
| 20260504193034 | 22 | 0.0 | 0.0 | 0.00 | 0.00 | 0.00 | 58 | 1010.3 | |
| 20260504192019 | 22 | 0.0 | 1.6 | 0.00 | 0.00 | 0.00 | 57 | 1010.3 | |
| 20260504191019 | 21 | 0.0 | 3.2 | 0.00 | 0.00 | 0.00 | 59 | 1010.4 | |
| 20260504190019 | 21 | 0.0 | 0.0 | 0.00 | 0.00 | 0.00 | 63 | 1010.3 | |
| 20260504185039 | 21 | 0.0 | 0.0 | 0.00 | 0.00 | 0.00 | 60 | 1010.4 | |
| 20260504184019 | 20 | 0.0 | 3.2 | 0.00 | 0.00 | 0.00 | 61 | 1010.5 | |
| 20260504183039 | 20 | 0.0 | 1.6 | 0.00 | 0.00 | 0.00 | 60 | 1010.7 | |
| 20260504182019 | 20 | 0.0 | 0.0 | 0.00 | 0.00 | 0.00 | 60 | 1010.7 | |
| 20260504181047 | 20 | 0.0 | 0.0 | 0.00 | 0.00 | 0.00 | 60 | 1010.7 | |
| 20260504180019 | 20 | 0.0 | 1.6 | 0.00 | 0.00 | 0.00 | 60 | 1010.5 | |
| 20260504175019 | 20 | 0.0 | 1.6 | 0.00 | 0.00 | 0.00 | 61 | 1010.5 | |
| 20260504174019 | 20 | 0.0 | 3.2 | 0.00 | 0.00 | 0.00 | 62 | 1010.4 | |
| 20260504173629 | 20 | 0.0 | 0.0 | 0.00 | 0.00 | 0.00 | 67 | 1010.4 |